Wind_Speed
95 99 89 80 76 80 81 86 77 76 76 79 75 63 59 58 52 55 51 50 54 53 50 52 54 59 53 50 52 60 57 52 58 54 49 48 46 43 38 32 27 24 28 32
103 95 75 84 84 78 79 78 71 72 78 81 72 64 54 60 52 53 52 51 51 50 49 52 55 54 48 48 53 59 50 54 55 51 47 46 45 39 31 28 23 27 32 35
93 73 84 89 82 78 76 70 68 75 82 82 64 53 53 57 51 52 53 50 50 47 50 52 53 47 47 48 55 51 50 54 53 48 46 44 39 31 27 23 27 30 35 38
91 77 83 80 74 74 70 68 70 75 76 65 61 48 57 55 53 54 51 50 46 47 50 52 48 44 43 49 52 47 51 54 50 46 42 39 33 27 22 26 31 35 37 33
77 71 68 70 66 78 73 73 73 72 72 58 52 48 60 55 54 55 48 48 45 47 48 45 42 42 43 51 50 46 50 53 46 41 37 33 26 20 24 29 33 33 29 27
87 77 81 65 72 73 74 68 68 66 59 49 52 49 62 57 54 49 48 46 45 40 42 39 40 41 46 50 44 46 51 48 40 35 34 25 19 21 26 30 28 23 24 19
90 79 69 63 63 65 64 60 56 51 37 37 53 50 62 53 51 48 48 46 40 34 36 37 38 42 46 45 41 44 51 42 35 34 29 18 18 25 28 25 22 21 16 12
93 85 70 62 57 56 56 53 47 40 36 41 51 44 61 51 44 46 48 42 30 30 33 36 39 40 44 39 41 45 47 38 34 31 21 15 19 27 24 21 19 16 13 12
99 90 78 68 62 59 52 39 36 35 33 39 43 50 53 42 29 40 38 31 24 29 32 35 34 42 38 37 41 46 42 34 32 25 15 12 21 23 19 25 21 15 13 12
102 92 80 71 68 60 49 49 38 28 24 27 35 36 42 37 26 35 30 22 24 28 33 30 36 37 35 39 41 42 38 33 29 14 9 13 20 19 21 23 28 21 16 15
101 94 85 77 60 55 48 40 31 19 18 23 33 31 38 29 30 30 20 20 23 27 28 29 33 30 35 38 38 38 32 33 19 6 4 13 19 19 24 26 24 22 20 18
106 95 87 71 67 62 57 47 39 32 28 30 32 37 42 26 21 22 23 25 25 22 25 26 26 28 33 33 35 32 30 25 9 4 5 15 22 21 27 25 21 20 18 18
110 103 93 81 72 63 51 43 36 33 29 29 33 38 35 24 25 28 27 27 21 21 24 22 22 27 29 30 33 26 28 16 0 6 8 17 25 21 22 22 23 24 21 18
109 104 94 80 68 61 56 47 42 38 32 31 29 36 35 29 25 26 26 23 18 21 23 18 20 25 25 27 27 22 22 11 4 7 8 16 20 24 24 21 23 24 28 25
108 103 96 82 72 64 58 53 49 42 36 30 34 43 36 27 32 31 25 20 17 22 20 16 17 22 23 25 23 19 20 11 4 8 7 10 15 20 24 22 19 25 27 27
106 102 92 82 76 68 61 55 50 47 39 40 39 46 27 32 33 32 29 19 19 23 18 16 15 17 20 22 18 16 19 14 3 12 8 3 7 12 19 17 20 18 22 30
106 100 91 87 77 69 63 57 51 49 44 47 47 48 36 39 37 34 30 24 23 24 18 15 15 14 17 19 16 15 16 14 7 8 12 7 1 4 12 13 13 16 19 19
104 99 93 89 80 70 66 61 55 53 52 54 53 47 48 44 39 38 35 24 29 25 18 15 12 11 15 16 17 14 13 12 11 2 8 10 7 5 3 10 10 9 13 14
102 99 94 90 79 74 71 63 57 54 53 53 49 46 43 42 39 35 26 26 29 24 19 16 10 12 13 14 16 15 12 10 11 8 2 8 9 9 9 3 6 10 8 12
101 98 95 89 83 77 70 64 59 60 57 51 46 40 37 31 28 26 25 33 31 25 19 14 10 12 12 12 13 15 13 10 9 9 6 1 6 7 4 3 5 6 8 8
102 99 95 89 84 78 72 67 65 62 53 49 44 36 32 33 32 27 24 33 33 25 21 13 11 10 10 11 11 13 15 13 9 8 7 5 3 1 2 2 3 6 7 9
105 100 95 90 85 82 78 72 64 56 52 50 45 37 35 37 32 29 31 33 32 27 23 16 13 8 8 9 9 10 13 15 13 9 7 5 5 4 3 3 4 4 5 10
102 100 95 93 89 82 78 72 63 60 57 53 47 40 40 41 37 34 34 37 35 30 24 19 16 10 7 9 7 9 9 11 15 15 10 5 5 6 5 4 3 5 5 9
102 102 97 95 91 84 78 75 69 66 61 57 52 43 44 45 40 38 37 40 38 33 29 24 20 14 8 8 6 6 7 8 10 15 15 11 4 5 6 5 4 3 3 4
99 103 100 97 93 87 81 78 75 69 65 60 55 49 47 49 45 41 39 38 40 37 33 29 24 17 12 9 7 6 5 8 8 9 13 14 11 7 7 5 4 4 4 1
91 102 102 99 95 89 81 80 77 73 68 63 59 56 50 50 48 46 43 40 39 36 35 32 28 23 19 14 10 8 7 6 8 8 8 11 13 12 9 8 6 5 5 4
Wind_Direction
254 256 259 257 254 254 257 260 260 260 263 270 274 270 267 270 279 278 281 283 283 287 294 294 297 299 302 312 319 322 321 323 323 320 325 321 317 316 311 306 305 316 314 316
251 256 255 254 256 255 254 255 258 258 259 264 268 271 269 269 272 275 276 279 282 287 291 292 298 299 307 317 319 324 321 324 321 327 324 319 317 313 310 308 313 316 315 317
249 248 247 252 255 257 257 258 252 251 259 264 265 266 260 268 270 269 273 278 282 285 287 294 294 301 312 317 325 321 324 322 328 327 321 320 315 314 311 319 317 317 317 319
246 246 250 252 256 255 253 250 248 252 257 261 263 258 257 264 263 265 271 275 280 284 288 290 296 308 314 323 323 323 326 327 329 324 322 318 317 312 321 321 317 314 316 318
242 242 245 245 247 249 248 250 251 252 256 257 258 252 255 258 258 262 271 274 279 283 287 293 302 309 319 321 323 324 328 329 325 322 322 321 317 325 326 321 319 317 319 326
242 238 242 242 246 251 254 255 257 262 268 270 253 248 253 251 258 266 265 273 278 284 289 295 305 312 320 321 323 325 328 328 325 320 323 322 327 333 331 331 332 329 330 336
241 239 239 240 244 249 254 255 254 255 257 252 251 244 253 251 253 258 266 273 277 285 290 298 305 318 318 320 325 325 328 328 321 319 322 319 333 338 338 340 335 337 347 11
235 236 237 238 242 244 246 247 248 242 235 238 242 243 249 253 258 260 264 269 276 282 291 299 314 319 320 321 323 325 325 326 318 318 318 323 341 346 355 359 356 10 26 37
233 234 233 232 233 237 242 249 241 241 231 230 238 239 248 252 248 259 262 266 275 284 293 305 314 319 320 321 324 321 320 323 318 320 317 334 357 356 21 27 22 28 39 40
233 232 230 229 232 238 241 239 244 239 228 225 223 233 246 244 243 255 259 266 273 285 294 313 317 319 322 320 317 317 323 325 317 319 321 357 2 15 32 40 40 40 40 44
229 230 229 228 233 240 241 244 239 224 233 225 231 233 247 243 252 256 257 263 274 290 304 311 315 317 316 314 316 318 327 325 319 313 359 21 19 40 36 42 43 43 47 51
225 227 228 223 223 227 231 229 216 206 207 207 210 221 238 240 244 252 254 264 275 294 302 305 308 311 311 316 321 325 331 319 324 134 50 44 38 51 40 36 46 41 48 51
223 225 225 222 223 226 231 234 228 224 215 220 215 230 234 226 235 244 253 264 281 287 288 292 303 304 311 319 323 332 329 317 224 153 71 56 47 51 38 50 44 41 45 44
221 225 227 223 219 220 222 229 230 229 221 217 213 236 237 238 245 245 248 263 274 264 274 282 296 303 314 319 323 333 324 321 172 161 87 68 58 61 64 65 49 53 42 46
216 221 224 220 218 218 220 222 227 225 214 211 219 233 238 241 238 240 249 261 262 255 260 273 291 303 315 321 323 339 327 324 192 180 134 85 65 64 63 61 59 48 49 45
212 217 219 219 216 215 217 219 221 225 226 212 219 234 234 232 237 246 255 257 252 238 245 266 284 303 315 324 330 341 334 322 230 200 185 161 90 72 71 56 61 54 53 63
209 213 213 216 217 215 214 216 216 216 217 220 228 229 228 230 238 245 250 262 231 226 236 257 274 305 314 327 339 341 346 330 327 209 210 223 286 61 78 62 51 68 59 57
207 210 211 214 214 215 212 213 212 212 213 217 225 227 229 234 239 246 257 255 217 218 229 248 263 294 310 328 349 343 346 349 343 230 193 215 223 269 68 93 85 67 75 72
205 208 210 213 213 210 211 211 211 212 214 218 224 226 227 235 244 250 240 213 208 216 225 240 255 280 308 327 351 351 348 360 352 10 199 214 230 249 279 282 109 99 93 83
202 208 210 211 209 208 210 211 210 210 210 215 224 222 227 228 219 224 220 192 201 212 219 229 246 265 295 321 345 359 354 8 9 349 22 339 235 243 245 240 133 126 119 117
199 205 207 208 207 207 209 210 211 211 212 217 223 219 217 212 209 208 197 193 202 203 214 216 235 255 286 304 334 358 4 7 16 6 353 18 23 101 141 230 198 165 159 156
198 202 204 206 207 207 208 209 211 210 211 214 219 213 210 210 205 202 189 190 210 202 212 211 220 245 271 295 326 347 2 15 13 14 3 6 9 9 53 104 125 155 166 173
200 201 203 204 207 207 208 208 207 208 210 212 216 210 206 208 204 202 189 190 198 210 212 215 218 223 255 275 308 332 349 9 21 17 15 6 13 11 11 32 73 113 142 172
198 200 201 204 207 207 207 209 207 207 209 210 212 209 204 206 207 207 194 192 197 200 215 221 225 217 236 261 274 312 339 350 5 22 23 17 8 18 7 12 28 70 114 147
198 200 202 204 206 207 206 208 208 206 209 209 213 209 204 206 206 208 209 197 201 201 206 220 228 225 224 245 263 271 305 335 358 5 23 23 23 20 358 344 351 11 19 60
199 200 202 205 207 207 204 208 209 207 207 208 211 212 207 208 206 207 211 210 208 213 210 216 226 234 233 234 256 267 273 300 330 354 8 16 18 20 16 5 335 332 340 324
Height
10666 10670 10702 10705 10713 10719 10729 10741 10742 10740 10737 10743 10756 10769 10764 10763 10770 10767 10766 10765 10762 10760 10758 10753 10749 10743 10735 10730 10723 10715 10703 10693 10685 10676 10666 10658 10652 10647 10639 10634 10631 10625 10621 10615
10643 10675 10688 10679 10693 10706 10713 10723 10733 10729 10721 10726 10744 10756 10754 10751 10758 10756 10755 10755 10754 10752 10750 10744 10739 10733 10727 10722 10715 10704 10695 10685 10678 10667 10658 10651 10646 10640 10633 10628 10624 10619 10614 10607
10629 10669 10649 10660 10678 10692 10700 10712 10712 10708 10704 10715 10736 10746 10742 10742 10747 10745 10744 10746 10745 10744 10739 10735 10731 10725 10719 10713 10705 10696 10687 10678 10668 10659 10651 10645 10640 10633 10628 10624 10618 10613 10606 10598
10611 10632 10639 10651 10665 10669 10681 10683 10687 10688 10693 10713 10720 10737 10728 10732 10735 10733 10735 10736 10738 10733 10729 10726 10721 10717 10712 10705 10698 10688 10679 10669 10661 10653 10646 10640 10634 10629 10625 10619 10612 10605 10597 10590
10608 10615 10623 10633 10643 10639 10661 10666 10670 10675 10682 10704 10714 10723 10710 10721 10721 10721 10728 10727 10728 10723 10720 10717 10712 10708 10703 10698 10689 10680 10671 10663 10656 10648 10642 10636 10630 10626 10621 10615 10606 10597 10590 10582
10577 10595 10600 10625 10623 10632 10643 10655 10664 10673 10686 10702 10698 10707 10695 10707 10711 10716 10717 10720 10717 10714 10712 10708 10705 10700 10696 10690 10681 10672 10665 10658 10650 10645 10640 10634 10628 10623 10617 10609 10600 10592 10585 10579
10562 10581 10597 10607 10615 10622 10631 10642 10654 10664 10675 10687 10679 10693 10682 10698 10702 10706 10709 10710 10708 10705 10704 10701 10697 10693 10690 10681 10674 10665 10658 10652 10647 10643 10637 10631 10626 10621 10613 10604 10596 10589 10582 10579
10546 10563 10583 10599 10609 10612 10618 10627 10640 10648 10658 10670 10668 10685 10666 10688 10696 10701 10700 10701 10700 10698 10697 10694 10690 10687 10681 10674 10667 10659 10653 10649 10645 10640 10634 10629 10625 10618 10611 10603 10595 10588 10583 10581
10530 10550 10567 10581 10589 10599 10612 10627 10629 10638 10649 10657 10664 10666 10670 10682 10684 10689 10692 10693 10692 10691 10689 10687 10684 10680 10673 10667 10659 10654 10649 10645 10642 10636 10631 10629 10624 10617 10611 10603 10595 10590 10587 10584
10519 10536 10555 10566 10575 10594 10611 10610 10624 10635 10644 10652 10656 10660 10664 10673 10676 10679 10684 10686 10685 10684 10682 10680 10677 10672 10666 10661 10656 10650 10644 10641 10638 10633 10631 10629 10623 10618 10612 10604 10598 10593 10590 10587
10500 10520 10540 10552 10579 10590 10601 10613 10624 10633 10639 10646 10649 10655 10652 10664 10668 10672 10677 10679 10677 10676 10674 10673 10670 10666 10662 10658 10652 10645 10641 10638 10634 10632 10631 10629 10623 10617 10613 10606 10601 10598 10594 10591
10480 10505 10526 10554 10560 10570 10583 10600 10612 10621 10628 10636 10642 10646 10645 10658 10663 10666 10670 10671 10669 10669 10668 10667 10665 10662 10660 10654 10647 10642 10639 10636 10632 10632 10632 10629 10624 10619 10615 10610 10606 10602 10599 10596
10465 10488 10508 10529 10547 10562 10583 10596 10606 10614 10623 10631 10637 10637 10642 10651 10656 10658 10662 10664 10662 10663 10662 10662 10661 10659 10656 10651 10645 10641 10637 10635 10632 10633 10633 10629 10626 10621 10619 10615 10612 10608 10604 10600
10452 10479 10498 10526 10545 10558 10571 10584 10596 10607 10617 10624 10630 10631 10634 10643 10649 10651 10656 10657 10656 10657 10658 10658 10658 10656 10653 10649 10643 10639 10637 10634 10632 10634 10633 10630 10628 10625 10623 10619 10616 10613 10608 10605
10442 10465 10490 10514 10532 10549 10563 10576 10586 10600 10607 10616 10621 10621 10628 10637 10641 10645 10651 10651 10651 10652 10654 10655 10656 10654 10650 10647 10641 10637 10636 10633 10632 10634 10633 10631 10630 10628 10627 10623 10620 10617 10614 10610
10432 10453 10482 10501 10519 10537 10552 10566 10581 10591 10599 10606 10610 10609 10625 10630 10636 10641 10645 10646 10647 10648 10651 10652 10653 10652 10649 10645 10640 10636 10635 10633 10630 10632 10632 10632 10631 10630 10629 10626 10623 10621 10620 10616
10421 10445 10469 10486 10508 10526 10542 10557 10570 10581 10590 10596 10600 10604 10618 10622 10628 10633 10637 10641 10643 10645 10648 10649 10651 10650 10647 10644 10639 10635 10634 10632 10629 10629 10631 10632 10631 10631 10630 10628 10627 10625 10624 10621
10411 10434 10455 10470 10496 10516 10532 10545 10559 10568 10576 10579 10584 10600 10608 10614 10622 10627 10632 10636 10638 10643 10645 10646 10648 10648 10646 10643 10638 10635 10633 10632 10629 10627 10629 10630 10631 10631 10631 10630 10629 10628 10627 10626
10402 10422 10442 10458 10487 10507 10519 10533 10548 10560 10568 10573 10580 10592 10601 10609 10619 10623 10627 10631 10634 10639 10642 10644 10645 10646 10644 10642 10639 10636 10633 10632 10630 10628 10628 10629 10630 10631 10631 10631 10630 10630 10630 10629
10394 10413 10431 10451 10474 10493 10512 10526 10539 10546 10557 10568 10575 10589 10598 10606 10611 10613 10618 10624 10629 10635 10639 10642 10643 10644 10643 10641 10639 10637 10634 10632 10631 10629 10628 10628 10629 10630 10630 10630 10630 10631 10631 10631
10381 10401 10419 10440 10461 10482 10499 10513 10526 10537 10555 10564 10572 10584 10593 10598 10599 10606 10615 10623 10625 10631 10636 10639 10641 10642 10641 10640 10639 10637 10635 10632 10631 10630 10629 10629 10629 10629 10629 10628 10629 10631 10632 10632
10367 10388 10411 10429 10450 10467 10485 10501 10521 10538 10548 10556 10565 10578 10586 10587 10594 10601 10609 10617 10627 10627 10631 10635 10638 10639 10639 10639 10638 10637 10635 10633 10631 10631 10630 10629 10629 10629 10629 10629 10628 10629 10630 10631
10362 10382 10402 10418 10436 10459 10477 10497 10516 10527 10538 10548 10556 10569 10577 10579 10586 10593 10602 10611 10618 10626 10628 10632 10635 10636 10637 10638 10637 10636 10635 10634 10632 10631 10630 10630 10629 10629 10629 10629 10629 10628 10629 10631
10352 10371 10391 10407 10423 10447 10469 10486 10503 10516 10529 10539 10549 10560 10569 10572 10581 10586 10596 10605 10611 10619 10625 10627 10631 10633 10634 10636 10635 10634 10634 10634 10633 10632 10630 10630 10630 10630 10629 10630 10630 10629 10629 10629
10343 10362 10380 10396 10413 10434 10455 10472 10491 10505 10518 10531 10540 10550 10560 10564 10574 10580 10587 10598 10605 10611 10620 10623 10626 10630 10632 10633 10633 10633 10633 10632 10633 10633 10631 10630 10630 10630 10630 10630 10630 10630 10629 10630
10337 10353 10372 10387 10402 10423 10447 10463 10479 10495 10509 10522 10531 10540 10550 10557 10567 10573 10579 10588 10599 10606 10611 10618 10622 10624 10627 10630 10631 10631 10631 10631 10631 10632 10632 10631 10631 10631 10631 10630 10630 10630 10630 10630